FW9983 Weather Reports


Display with metric or nautical units.
time (UTC)temp
F
wind
direction
speed
MPH
gust
MPH
rain 1hr
in
rain 24hr
in
rain mn
in
humidity
%
barometer
mb
20260506090548 58 0 0.0 5.0 0.00 0.00 0.00 77 1010.3
20260506090057 58 5 2.0 5.0 0.00 0.00 0.00 76 1010.1
20260506085547 58 24 2.0 6.0 0.00 0.00 0.00 76 1010.1
20260506085051 58 331 0.0 6.0 0.00 0.00 0.00 76 1010.2
20260506084554 58 339 2.0 6.0 0.00 0.00 0.00 76 1010.1
20260506084048 58 22 1.0 5.0 0.00 0.00 0.00 77 1009.9
20260506083548 58 16 1.0 5.0 0.00 0.00 0.00 77 1009.9
20260506083058 59 45 1.0 5.0 0.00 0.00 0.00 77 1009.9
20260506082547 59 355 1.0 5.0 0.00 0.00 0.00 77 1009.9
20260506082047 59 0 2.0 4.0 0.00 0.00 0.00 77 1009.9
20260506081602 59 30 2.0 4.0 0.00 0.00 0.00 77 1009.8
20260506081047 59 355 1.0 4.0 0.00 0.00 0.00 77 1009.8
20260506080547 59 360 2.0 5.0 0.00 0.00 0.00 77 1009.8
20260506073053 59 81 2.0 6.0 0.00 0.00 0.00 77 1009.2
20260506072548 59 360 1.0 6.0 0.00 0.00 0.00 77 1009.2
20260506072047 59 50 1.0 6.0 0.00 0.00 0.00 77 1009.5
20260506071548 60 24 2.0 6.0 0.00 0.00 0.00 77 1009.5
20260506071047 60 52 1.0 6.0 0.00 0.00 0.00 77 1009.3
20260506070550 60 20 2.0 8.0 0.00 0.00 0.00 77 1009.6
20260506062048 60 16 2.0 7.0 0.00 0.00 0.00 79 1009.4
20260506061553 61 33 1.0 5.0 0.00 0.00 0.00 78 1009.4
20260506061044 61 5 1.0 6.0 0.00 0.00 0.00 79 1009.5
20260506060545 61 25 1.0 6.0 0.00 0.00 0.00 79 1009.5
20260506051044 62 355 3.0 6.0 0.00 0.00 0.00 78 1009.5
20260506050544 62 344 2.0 8.0 0.00 0.00 0.00 77 1009.5
20260506045048 62 0 1.0 8.0 0.00 0.00 0.00 77 1009.3
20260506044553 63 0 2.0 8.0 0.00 0.00 0.00 77 1009.3
20260506044048 63 346 2.0 8.0 0.00 0.00 0.00 77 1009.3
20260506043548 63 40 2.0 8.0 0.00 0.00 0.00 77 1009.4
20260506043049 63 9 2.0 6.0 0.00 0.00 0.00 77 1009.4
20260506042548 64 30 2.0 7.0 0.00 0.00 0.00 77 1009.5
20260506042049 64 21 1.0 7.0 0.00 0.00 0.00 77 1009.4
20260506041552 64 343 2.0 8.0 0.00 0.00 0.00 77 1009.4
20260506041047 64 19 2.0 8.0 0.00 0.00 0.00 77 1009.3
20260506040550 64 26 2.0 9.0 0.00 0.00 0.00 77 1009.3
20260506040056 65 5 2.0 9.0 0.00 0.00 0.00 77 1009.5
20260506035547 65 318 2.0 8.0 0.00 0.00 0.00 76 1009.3
20260506035048 65 26 2.0 8.0 0.00 0.00 0.00 77 1008.9
20260506034610 65 10 3.0 8.0 0.00 0.00 0.00 76 1008.7
20260506034045 65 342 2.0 9.0 0.00 0.00 0.00 76 1008.7
20260506033544 66 23 2.0 9.0 0.00 0.00 0.00 76 1008.5
20260506033051 66 355 3.0 9.0 0.00 0.00 0.00 75 1008.6
20260506032544 66 22 2.0 7.0 0.00 0.00 0.00 75 1008.6
20260506032048 67 33 3.0 7.0 0.00 0.00 0.00 75 1008.5
20260506031553 67 355 2.0 8.0 0.00 0.00 0.00 74 1008.6
20260506031048 67 23 1.0 8.0 0.00 0.00 0.00 74 1008.5
20260506030547 68 315 2.0 8.0 0.00 0.00 0.00 75 1008.5
20260506030050 68 352 1.0 6.0 0.00 0.00 0.00 75 1008.5
20260506025548 68 0 1.0 6.0 0.00 0.00 0.00 74 1008.2
20260506025048 68 283 2.0 7.0 0.00 0.00 0.00 74 1008.1
20260506024555 68 355 1.0 7.0 0.00 0.00 0.00 74 1008.1
20260506024048 68 360 1.0 6.0 0.00 0.00 0.00 73 1007.9
20260506023548 68 355 1.0 8.0 0.00 0.00 0.00 73 1007.9
20260506023057 68 348 2.0 8.0 0.00 0.00 0.00 73 1007.9
20260506022547 69 332 1.0 6.0 0.00 0.00 0.00 73 1007.7
20260506022047 69 16 1.0 6.0 0.00 0.00 0.00 72 1007.4
20260506021550 69 308 1.0 8.0 0.00 0.00 0.00 72 1007.4
20260506021044 69 329 1.0 8.0 0.00 0.00 0.00 72 1007.2
20260506020548 69 349 1.0 4.0 0.00 0.00 0.00 71 1007.2
20260506020051 69 344 2.0 6.0 0.00 0.00 0.00 71 1007.1
20260506015544 69 355 1.0 7.0 0.00 0.00 0.00 71 1007.0
20260506015048 70 32 2.0 7.0 0.00 0.00 0.00 71 1006.6
20260506014554 70 355 1.0 9.0 0.00 0.00 0.00 71 1006.4
20260506014051 70 355 1.0 9.0 0.00 0.00 0.00 71 1006.5
20260506013552 71 15 3.0 9.0 0.00 0.00 0.00 70 1006.5
20260506013106 71 15 2.0 5.0 0.00 0.00 0.00 71 1006.4
20260506012548 71 11 1.0 4.0 0.00 0.00 0.00 70 1006.3
20260506012050 71 19 1.0 3.0 0.00 0.00 0.00 70 1005.9
20260506011559 71 321 1.0 4.0 0.00 0.00 0.00 70 1006.3
20260506011047 72 345 1.0 4.0 0.00 0.00 0.00 70 1006.3
20260506010548 72 319 2.0 4.0 0.00 0.00 0.00 69 1006.1
20260506010117 72 360 1.0 3.0 0.00 0.00 0.00 70 1006.2
20260506005546 72 0 0.0 4.0 0.00 0.00 0.00 69 1006.0
20260506005044 73 0 0.0 4.0 0.00 0.00 0.00 69 1005.9
20260506004549 73 337 1.0 9.0 0.00 0.00 0.00 69 1005.8
20260506004044 73 342 1.0 9.0 0.00 0.00 0.00 68 1005.5
20260506003549 73 38 2.0 9.0 0.00 0.00 0.00 68 1005.1
20260506003051 74 11 3.0 9.0 0.00 0.00 0.00 68 1005.3
20260506002544 74 11 1.0 7.0 0.00 0.00 0.00 68 1005.4
20260506002044 75 5 2.0 8.0 0.00 0.00 0.00 68 1005.1
20260506001554 75 333 2.0 8.0 0.00 0.00 0.00 67 1005.1
20260506001044 76 355 3.0 8.0 0.00 0.00 0.00 66 1005.2
20260506000548 77 31 2.0 6.0 0.00 0.00 0.00 66 1005.1
20260506000053 77 360 1.0 6.0 0.00 0.00 0.00 65 1005.0
20260505235548 78 17 1.0 6.0 0.00 0.00 0.00 65 1004.7
20260505235050 78 338 1.0 5.0 0.00 0.00 0.00 65 1004.9
20260505234552 79 351 1.0 4.0 0.00 0.00 0.00 64 1004.7
20260505234047 79 281 1.0 6.0 0.00 0.00 0.00 64 1004.6
20260505233547 79 325 1.0 7.0 0.00 0.00 0.00 64 1004.6
20260505233105 80 36 2.0 7.0 0.00 0.00 0.00 63 1004.5
20260505232550 80 344 1.0 7.0 0.00 0.00 0.00 63 1004.6
20260505232048 81 288 2.0 7.0 0.00 0.00 0.00 61 1004.9
20260505231551 81 329 1.0 7.0 0.00 0.00 0.00 60 1004.8
20260505231047 82 281 2.0 8.0 0.00 0.00 0.00 60 1004.5
20260505230544 82 0 2.0 8.0 0.00 0.00 0.00 60 1004.4
20260505230058 83 289 3.0 8.0 0.00 0.00 0.00 59 1004.5
20260505225546 83 300 2.0 8.0 0.00 0.00 0.00 59 1004.4
20260505225045 84 294 2.0 5.0 0.00 0.00 0.00 57 1004.2
20260505224554 85 0 1.0 8.0 0.00 0.00 0.00 57 1004.0
20260505224049 85 0 2.0 8.0 0.00 0.00 0.00 55 1004.0
20260505223544 85 0 2.0 8.0 0.00 0.00 0.00 54 1004.1
20260505223052 85 325 1.0 8.0 0.00 0.00 0.00 54 1004.3
20260505222544 85 329 2.0 5.0 0.00 0.00 0.00 53 1004.1
20260505222048 86 325 1.0 8.0 0.00 0.00 0.00 52 1003.9
20260505221555 86 299 1.0 8.0 0.00 0.00 0.00 52 1003.9
20260505221046 87 349 2.0 8.0 0.00 0.00 0.00 51 1003.8
20260505220544 88 15 2.0 10.0 0.00 0.00 0.00 50 1003.7
20260505220055 89 355 1.0 10.0 0.00 0.00 0.00 50 1003.6
20260505215547 91 287 2.0 8.0 0.00 0.00 0.00 48 1003.4
20260505215044 92 351 2.0 8.0 0.00 0.00 0.00 48 1003.6
20260505214604 93 292 1.0 7.0 0.00 0.00 0.00 45 1003.7
20260505214043 93 263 2.0 7.0 0.00 0.00 0.00 46 1003.7
20260505213543 93 236 1.0 8.0 0.00 0.00 0.00 44 1003.7
20260505213051 94 232 2.0 8.0 0.00 0.00 0.00 46 1003.5
20260505212548 94 307 2.0 8.0 0.00 0.00 0.00 47 1003.7
20260505212048 93 0 1.0 7.0 0.00 0.00 0.00 48 1003.7
20260505211549 93 281 1.0 7.0 0.00 0.00 0.00 48 1003.8
20260505211045 93 286 1.0 7.0 0.00 0.00 0.00 49 1004.0
20260505210547 93 246 1.0 4.0 0.00 0.00 0.00 50 1003.9
20260505210051 92 207 1.0 8.0 0.00 0.00 0.00 50 1004.0
20260505205547 92 281 2.0 8.0 0.00 0.00 0.00 50 1004.1
20260505205044 92 0 1.0 10.0 0.00 0.00 0.00 52 1004.0
20260505204618 92 282 3.0 10.0 0.00 0.00 0.00 51 1004.0
20260505204046 91 183 1.0 9.0 0.00 0.00 0.00 53 1004.3
20260505203547 91 0 2.0 9.0 0.00 0.00 0.00 53 1004.2
20260505203049 91 248 3.0 8.0 0.00 0.00 0.00 53 1004.3
20260505202550 91 245 1.0 9.0 0.00 0.00 0.00 53 1004.3
20260505202047 90 211 1.0 9.0 0.00 0.00 0.00 56 1004.4
20260505201557 90 269 2.0 9.0 0.00 0.00 0.00 54 1004.5
20260505201044 90 238 1.0 9.0 0.00 0.00 0.00 56 1004.4
20260505200544 90 248 3.0 9.0 0.00 0.00 0.00 55 1004.5
20260505200054 90 317 2.0 11.0 0.00 0.00 0.00 56 1004.6
20260505195546 90 0 2.0 11.0 0.00 0.00 0.00 57 1004.5
20260505195048 89 248 2.0 12.0 0.00 0.00 0.00 56 1004.5
20260505194552 89 306 4.0 12.0 0.00 0.00 0.00 57 1004.4
20260505194044 89 243 3.0 12.0 0.00 0.00 0.00 57 1004.5
20260505193548 89 244 3.0 12.0 0.00 0.00 0.00 57 1004.6
20260505193053 88 213 3.0 9.0 0.00 0.00 0.00 58 1004.6
20260505192547 88 296 2.0 11.0 0.00 0.00 0.00 58 1004.7
20260505192047 88 221 3.0 13.0 0.00 0.00 0.00 59 1004.5
20260505191603 87 240 4.0 13.0 0.00 0.00 0.00 59 1004.6
20260505191049 87 231 4.0 11.0 0.00 0.00 0.00 60 1004.7
20260505190550 87 65 1.0 9.0 0.00 0.00 0.00 62 1004.7
20260505190058 86 194 3.0 9.0 0.00 0.00 0.00 63 1004.6
20260505185547 86 273 3.0 10.0 0.00 0.00 0.00 64 1004.7
20260505185047 86 277 1.0 11.0 0.00 0.00 0.00 63 1004.7
20260505184551 85 229 2.0 11.0 0.00 0.00 0.00 63 1004.8
20260505184044 85 168 2.0 8.0 0.00 0.00 0.00 64 1004.9
20260505183544 85 240 1.0 8.0 0.00 0.00 0.00 64 1004.9
20260505183124 85 281 2.0 8.0 0.00 0.00 0.00 64 1004.8
20260505182544 85 240 2.0 8.0 0.00 0.00 0.00 65 1005.0
20260505182048 85 243 2.0 8.0 0.00 0.00 0.00 64 1005.0
20260505181553 84 161 1.0 9.0 0.00 0.00 0.00 66 1004.8
20260505181044 84 239 1.0 9.0 0.00 0.00 0.00 66 1005.0
20260505180543 84 239 3.0 10.0 0.00 0.00 0.00 67 1004.9
20260505180049 83 235 2.0 13.0 0.00 0.00 0.00 67 1004.9
20260505175547 83 254 3.0 13.0 0.00 0.00 0.00 66 1005.0
20260505175048 83 268 2.0 11.0 0.00 0.00 0.00 66 1004.9
20260505174552 83 324 2.0 11.0 0.00 0.00 0.00 66 1004.9
20260505174048 83 159 2.0 10.0 0.00 0.00 0.00 66 1004.8
20260505173548 83 234 3.0 12.0 0.00 0.00 0.00 66 1004.8
20260505173059 83 181 2.0 12.0 0.00 0.00 0.00 67 1004.8
20260505172550 83 191 2.0 12.0 0.00 0.00 0.00 67 1005.0
20260505172047 83 238 1.0 12.0 0.00 0.00 0.00 67 1005.0
20260505171604 83 241 2.0 8.0 0.00 0.00 0.00 66 1005.0
20260505171044 83 255 2.0 11.0 0.00 0.00 0.00 68 1004.9
20260505170543 82 203 3.0 11.0 0.00 0.00 0.00 68 1005.0
20260505170058 82 259 2.0 11.0 0.00 0.00 0.00 69 1005.0
20260505165544 81 252 3.0 13.0 0.00 0.00 0.00 69 1005.0
20260505165044 81 289 2.0 15.0 0.00 0.00 0.00 70 1005.0
20260505164552 80 207 6.0 15.0 0.00 0.00 0.00 70 1004.9
20260505164044 80 222 4.0 15.0 0.00 0.00 0.00 71 1005.0
20260505163547 80 261 4.0 14.0 0.00 0.00 0.00 70 1004.9
20260505163102 80 261 4.0 14.0 0.00 0.00 0.00 71 1004.8
20260505162544 80 248 3.0 17.0 0.00 0.00 0.00 71 1004.9
20260505162044 80 246 4.0 17.0 0.00 0.00 0.00 71 1004.9
20260505161629 80 232 3.0 11.0 0.00 0.00 0.00 71 1004.8
20260505161047 80 304 5.0 14.0 0.00 0.00 0.00 71 1004.9
20260505160544 80 268 4.0 14.0 0.00 0.00 0.00 72 1004.9
20260505153059 77 337 3.0 12.0 0.00 0.00 0.00 76 1004.4
20260505152548 77 315 3.0 10.0 0.00 0.00 0.00 76 1004.3
20260505152043 77 281 3.0 10.0 0.00 0.00 0.00 76 1004.5
20260505151618 77 248 2.0 11.0 0.00 0.00 0.00 76 1004.4
20260505151044 77 227 4.0 11.0 0.00 0.00 0.00 76 1004.4
20260505150548 77 235 2.0 10.0 0.00 0.00 0.00 77 1004.4
20260505140546 73 225 3.0 14.0 0.00 0.00 0.00 82 1004.1
20260505124551 70 229 2.0 13.0 0.00 0.00 0.00 86 1003.8
20260505124047 70 269 3.0 11.0 0.00 0.00 0.00 87 1003.8
20260505123549 70 162 2.0 9.0 0.00 0.00 0.00 87 1003.8
20260505123054 70 121 2.0 12.0 0.00 0.00 0.00 87 1003.9
20260505122546 70 0 3.0 12.0 0.00 0.00 0.00 87 1003.7
20260505122047 70 179 2.0 9.0 0.00 0.00 0.00 87 1003.7
20260505121556 70 225 3.0 10.0 0.00 0.00 0.00 87 1003.4
20260505121048 70 265 2.0 10.0 0.00 0.00 0.00 87 1003.4
20260505120544 70 255 2.0 10.0 0.00 0.00 0.00 87 1003.3
20260505120108 70 149 2.0 14.0 0.00 0.00 0.00 87 1003.4
20260505115546 70 237 3.0 14.0 0.00 0.00 0.00 87 1003.4
20260505115046 70 252 3.0 15.0 0.00 0.00 0.00 87 1003.3
20260505114550 70 183 1.0 15.0 0.00 0.00 0.00 87 1003.3
20260505114047 70 267 4.0 15.0 0.00 0.00 0.00 87 1003.3
20260505113546 70 255 2.0 15.0 0.00 0.00 0.00 87 1003.2
20260505113048 70 206 2.0 15.0 0.00 0.00 0.00 87 1003.1
20260505112547 70 288 4.0 15.0 0.00 0.00 0.00 87 1003.1
20260505112043 70 215 3.0 10.0 0.00 0.00 0.00 87 1003.2
20260505111552 70 236 1.0 9.0 0.00 0.00 0.00 86 1003.1
20260505111048 70 188 2.0 10.0 0.00 0.00 0.00 87 1003.2
20260505110548 70 281 2.0 12.0 0.00 0.00 0.00 87 1003.2
20260505102047 70 237 3.0 12.0 0.00 0.00 0.00 86 1003.1
20260505101555 70 217 3.0 14.0 0.00 0.00 0.00 86 1003.2
20260505101044 70 277 4.0 14.0 0.00 0.00 0.00 85 1003.1
20260505100544 70 243 2.0 12.0 0.00 0.00 0.00 85 1003.2
20260505100054 70 142 3.0 14.0 0.00 0.00 0.00 85 1003.3
20260505095543 71 202 3.0 15.0 0.00 0.00 0.00 85 1003.2
20260505095046 71 263 4.0 15.0 0.00 0.00 0.00 85 1003.2
20260505094550 71 227 2.0 13.0 0.00 0.00 0.00 85 1003.2
20260505094051 71 176 3.0 14.0 0.00 0.00 0.00 84 1003.2
20260505093544 71 169 3.0 14.0 0.00 0.00 0.00 84 1003.1
20260505093057 71 145 2.0 10.0 0.00 0.00 0.00 84 1003.3
20260505092546 71 206 3.0 10.0 0.00 0.00 0.00 84 1003.3
20260505092047 71 200 2.0 11.0 0.00 0.00 0.00 84 1003.3
20260505091550 71 159 2.0 11.0 0.00 0.00 0.00 84 1003.4
20260505091042 71 199 3.0 15.0 0.00 0.00 0.00 83 1003.5